カタログに戻る

HJS-6B

運用中科学VLEO
NORAD 63429·PAYLOAD·🇨🇳 China

打ち上げ Apr 1, 2025 から Jiuquan Satellite Launch Center

Loading…

次のパス (今後24時間)

TLE

最新Source: Space-Track

元期: Sep 14, 2026, 14:43 UTC

1 63429U 25067B   26257.61388448  .00014123  00000-0  67440-3 0  9993
2 63429  54.9972 356.8385 0006397 169.2998 190.8158 15.19322657 81539

AllMySatでHJS-6Bをリアルタイム追跡

Download on the App Store